Location: Sagn�
(15.2046°N, 12.7898°W)
Time: 22:36:45
(UTC+00:00)

Daily predictions for brighter satellites

Satellite Brightness Start Highest point End
(mag) Time Altitude Azimuth Time Altitude Azimuth Time Altitude Azimuth
SL-16 R/B 2.4 19:23:20 10° N 19:28:50 53° ENE 19:34:19 10° SSE
IRIDIUM 104 4.3 19:23:42 10° S 19:28:51 67° E 19:34:01 10° N
Ariane H10-3 3.3 19:26:51 10° SW 19:29:36 32° SSE 19:37:44 10° ESE
Meteor 1-4 Rocket 3.0 19:27:10 10° SSW 19:30:38 64° W 19:34:11 10° N
GPS 2-17 Rocket1 3.3 19:26:44 10° WSW 19:31:26 61° SSE 19:36:13 10° E
Feng Yun 1-1 Rocket 4.2 19:26:43 10° SSE 19:32:12 70° ENE 19:37:35 10° N
CZ-2D R/B 4.1 19:29:45 10° S 19:33:32 55° W 19:37:18 10° NNW
CZ-2C R/B 2.8 19:28:11 10° NNE 19:33:39 89° ESE 19:39:14 10° SSW
Cosmos-2242 4.3 19:31:27 10° SSW 19:35:34 46° W 19:39:39 10° N
BREEZE M DEB (TANK) 4.4 19:25:36 10° NNW 19:37:19 39° NNE 19:40:57 10° ESE
IRIDIUM 114 4.3 19:32:47 10° S 19:37:59 87° E 19:43:12 10° N
IRS-1C Rocket 4.2 19:36:53 10° SSE 19:42:00 55° ENE 19:47:07 10° N
CZ-4 R/B 1.4 19:43:43 10° SSE 19:47:52 71° ENE 19:51:57 10° N
Cosmos 968 Rocket 4.1 19:43:26 10° SSE 19:48:08 34° E 19:52:49 10° NE
Okean O Rocket 4.0 19:46:00 10° SSW 19:49:36 24° W 19:53:12 10° NW
Star 48 S/N 10017-12 3.4 19:47:24 10° WNW 19:49:52 90° E 19:52:07 15° ESE
Okean 3 Rocket 4.4 19:48:17 10° NNE 19:52:06 29° E 19:55:46 11° SE
Okean-O 2.9 19:48:13 10° SSE 19:52:29 49° ENE 19:56:44 10° N
Cosmos 1655 Rocket 4.0 19:48:16 10° N 19:54:26 67° E 20:00:37 10° SSE
Meteor 2-3 Rocket 3.6 19:49:27 10° N 19:55:02 73° E 20:00:34 10° SSE
DMSP B5D2-2 4.1 19:55:17 10° NNE 20:00:34 89° WNW 20:05:51 10° SSW
Delta 2 Rocket 3.8 19:56:04 10° SW 20:01:23 69° SE 20:06:08 10° ENE
Cosmos 2221 2.6 19:57:51 10° S 20:02:00 54° E 20:06:11 10° NNE
ERS-2 2.0 19:59:42 10° NNE 20:03:19 78° ESE 20:06:56 10° S
GEOS 3 Rocket 3.8 20:00:00 13° SE 20:04:45 60° ENE 20:10:02 10° NNW
GPS 2-04 Rocket1 4.2 20:07:23 10° W 20:11:16 38° NNW 20:15:05 10° NE
OBJECT-B 3.2 20:22:05 12° NE 20:22:05 12° NE 20:22:29 10° NE
Cosmos 1553 Rocket 4.2 20:15:08 10° SSE 20:20:52 45° E 20:26:39 10° NNE
YAOGAN 1 3.6 20:17:44 10° S 20:21:52 45° W 20:25:59 10° NNW
Cosmos 1437 Rocket 3.7 20:23:34 28° ENE 20:23:34 28° ENE 20:26:12 10° NNE
H-2A R/B 3.6 20:18:37 10° SSW 20:23:00 32° W 20:27:21 10° NW
NOSS 3-1 (C) 4.3 20:14:33 10° NNW 20:23:06 77° ENE 20:30:22 18° SSE
Cosmos 1766 Rocket 3.5 20:22:14 10° N 20:26:39 87° W 20:30:21 15° S
Mugunghwa Rocket 3.9 20:21:04 10° WSW 20:27:25 90° NNW 20:32:51 17° ENE
ASC 2 Rocket 4.4 20:21:21 10° WNW 20:27:53 44° N 20:30:38 23° ENE
Cosmos 1763 Rocket 3.8 20:26:56 10° NNW 20:31:58 64° WSW 20:36:26 14° S
Cosmos 841 Rocket 3.5 20:34:31 10° N 20:39:33 56° ENE 20:40:39 46° ESE
GPS 2-18 Rocket1 3.5 20:41:03 10° W 20:44:37 50° N 20:44:58 48° N
Cosmos 1603 3.7 20:40:08 10° N 20:45:40 58° ENE 20:46:45 49° ESE
Delta 202 3.4 20:40:38 10° WSW 20:46:04 88° S 20:47:38 47° E
Cosmos 1503 Rocket 3.9 20:45:24 48° SSE 20:46:27 58° ESE 20:51:30 10° NNE
SJ-6B 3.8 20:48:30 33° NNE 20:48:30 33° NNE 20:50:55 10° N
USA 267 3.2 20:47:55 38° SE 20:50:45 88° ENE 20:57:20 10° NW
Lacrosse 5 rocket 1.4 20:49:21 10° NW 20:53:49 82° WSW 20:54:05 77° S
OAO 3 Rocket 4.2 20:54:11 10° SW 20:56:55 33° SSW 20:56:55 33° SSW
Ariane Rocket 3.9 21:02:29 35° NE 21:02:29 35° NE 21:05:54 10° N
Cosmos 1606 3.9 21:00:54 33° WSW 21:01:48 39° W 21:05:19 10° NNW
Helios 1A Rocket 4.0 21:02:28 37° SW 21:03:17 42° W 21:07:12 10° NNW
Cosmos 1408 Rocket 4.3 21:06:23 10° NNW 21:10:39 49° W 21:10:58 48° WSW
Cosmos 921 Rocket 3.9 21:09:30 10° NNW 21:12:32 44° NW 21:12:32 44° NW
Cosmos 1570 Rocket 4.0 21:09:19 10° NNW 21:14:01 73° NNW 21:14:01 73° NNW
GPS 2-17 Rocket1 3.7 21:10:10 10° W 21:14:23 56° NW 21:14:23 56° NW
Cosmos 1354 Rocket 4.2 21:18:19 66° NNW 21:18:19 66° NNW 21:22:54 10° N
SL-08 ROCKET BODY 4.5 21:12:01 10° N 21:16:56 61° NNE 21:16:56 61° NNE
Cosmos 1943 3.5 21:17:48 10° NNW 21:23:20 59° WSW 21:23:37 58° WSW
IRS-1A Rocket 4.5 21:25:51 65° N 21:25:51 65° N 21:30:42 10° NNW
Milstar 3 4.3 22:13:13 10° W 22:27:12 47° NNW 22:29:41 40° NNE
